Location: De Har
(53.3413°N, 6.6858°E)
Time: 20:29:08
(UTC+00:00)

Cosmos 2219 Rocket - Pass Details

Date: 22 April 2026
Orbit: 826 x 846 km, 71.0° (Epoch: 21 May)

Event Time Altitude Azimuth Distance (km) Brightness Sun altitude
Rises 02:56:23 0° 325° (NW) 3,394 5.4 -11.4°
Reaches altitude 10° 02:58:56 10° 318° (NW) 2,458 4.6 -11.1°
Maximum altitude 03:04:10 41° 250° (WSW) 1,196 2.6 -10.5°
Drops below altitude 10° 03:09:25 10° 182° (S) 2,455 4.3 -9.8°
Sets 03:11:58 0° 175° (S) 3,388 5.0 -9.5°
